Location: Etzleinsberg
(48.4833°N, 14.0333°E)
Time: 17:27:54
(UTC+00:00)

STARLINK-75 - Pass Details

Date: 07 June 2020
Orbit: 360 x 370 km, 53.0° (Epoch: 09 July)

Event Time Altitude Azimuth Distance (km) Brightness Sun altitude
Exits shadow 00:27:03 34° 251° (WSW) 656 3.7 -16.3°
Maximum altitude 00:28:17 81° 335° (NNW) 396 2.9 -16.2°
Drops below altitude 10° 00:31:26 10° 63° (ENE) 1,411 6.4 -16.0°
Enters shadow 01:26:53 -69° 254° (WSW) 12,314 10.4 -11.8°
